When you browse on this site, cookies collect data to enhance your experience and personalize the content and advertising you see.
Visit our Privacy Policy to learn more. By continuing to use the site, you agree to this use of cookies and data.
  • In Netherlands
  • List of Countries
  • For 7 days
  • Water Temperature
  • Weather Map
  • Weather Widgets
  • user-avatar
    Login

    Hourly Weather Zilbachi

    Today, 20 October, Sunday

    Time Temperature Precipitation Wind Pressure Humidity
    00:00 +10°C° 0 mm 1 mps 658 mmHg 78%
    01:00 +10°C° 0 mm 1 mps 658 mmHg 77%
    02:00 +10°C° 0 mm 1 mps 658 mmHg 77%
    03:00 +9°C° 0 mm 0 mps 658 mmHg 79%
    04:00 +8°C° 0 mm 0 mps 658 mmHg 79%
    05:00 +8°C° 0 mm 0 mps 658 mmHg 79%
    06:00 +8°C° 0 mm 0 mps 659 mmHg 79%
    07:00 +11°C° 0 mm 1 mps 659 mmHg 73%
    08:00 +12°C° 0 mm 1 mps 660 mmHg 67%
    09:00 +14°C° 0 mm 1 mps 660 mmHg 62%
    10:00 +15°C° 0 mm 2 mps 661 mmHg 60%
    11:00 +15°C° 0 mm 2 mps 661 mmHg 58%
    12:00 +16°C° 0 mm 3 mps 661 mmHg 56%
    13:00 +16°C° 0.1 mm 2 mps 661 mmHg 58%
    14:00 +15°C° 0.1 mm 2 mps 660 mmHg 61%
    15:00 +14°C° 0.1 mm 2 mps 660 mmHg 64%
    16:00 +13°C° 0 mm 1 mps 660 mmHg 72%
    17:00 +11°C° 0 mm 1 mps 660 mmHg 80%
    18:00 +9°C° 0 mm 0 mps 659 mmHg 89%
    19:00 +9°C° 0 mm 0 mps 659 mmHg 88%
    20:00 +8°C° 0 mm 0 mps 659 mmHg 88%
    21:00 +8°C° 0 mm 0 mps 659 mmHg 88%
    22:00 +8°C° 0 mm 0 mps 659 mmHg 87%
    23:00 +8°C° 0 mm 0 mps 659 mmHg 87%

    Tomorrow, 21 October, Monday

    Time Temperature Precipitation Wind Pressure Humidity
    00:00 +8°C° 0 mm 0 mps 659 mmHg 87%
    01:00 +7°C° 0 mm 0 mps 659 mmHg 86%
    02:00 +7°C° 0 mm 0 mps 659 mmHg 86%
    03:00 +7°C° 0 mm 0 mps 659 mmHg 85%
    04:00 +7°C° 0 mm 0 mps 659 mmHg 85%
    05:00 +7°C° 0 mm 0 mps 659 mmHg 84%
    06:00 +7°C° 0 mm 0 mps 659 mmHg 84%
    07:00 +9°C° 0 mm 1 mps 660 mmHg 78%
    08:00 +11°C° 0 mm 1 mps 660 mmHg 72%
    09:00 +13°C° 0 mm 1 mps 661 mmHg 66%
    10:00 +13°C° 0 mm 2 mps 661 mmHg 66%
    11:00 +14°C° 0 mm 2 mps 661 mmHg 65%
    12:00 +14°C° 0 mm 2 mps 661 mmHg 64%
    13:00 +14°C° 0 mm 2 mps 661 mmHg 67%
    14:00 +13°C° 0 mm 2 mps 660 mmHg 71%
    15:00 +12°C° 0 mm 2 mps 660 mmHg 74%
    16:00 +11°C° 0 mm 1 mps 660 mmHg 80%
    17:00 +10°C° 0 mm 1 mps 659 mmHg 86%
    18:00 +8°C° 0 mm 0 mps 659 mmHg 92%
    19:00 +8°C° 0 mm 0 mps 659 mmHg 91%
    20:00 +7°C° 0 mm 0 mps 659 mmHg 91%
    21:00 +7°C° 0 mm 0 mps 659 mmHg 91%
    22:00 +7°C° 0 mm 0 mps 659 mmHg 91%
    23:00 +7°C° 0 mm 0 mps 659 mmHg 90%

    Day after tomorrow, 22 October, Tuesday

    Time Temperature Precipitation Wind Pressure Humidity
    00:00 +7°C° 0 mm 0 mps 658 mmHg 90%
    01:00 +6°C° 0 mm 0 mps 658 mmHg 89%
    02:00 +6°C° 0 mm 0 mps 658 mmHg 88%
    03:00 +6°C° 0 mm 0 mps 658 mmHg 87%
    04:00 +6°C° 0 mm 0 mps 658 mmHg 86%
    05:00 +6°C° 0 mm 0 mps 658 mmHg 85%
    06:00 +6°C° 0 mm 0 mps 658 mmHg 84%
    07:00 +9°C° 0 mm 1 mps 658 mmHg 80%
    08:00 +10°C° 0 mm 1 mps 659 mmHg 75%
    09:00 +12°C° 0 mm 1 mps 660 mmHg 70%
    10:00 +12°C° 0 mm 1 mps 660 mmHg 70%
    11:00 +13°C° 0 mm 2 mps 660 mmHg 69%
    12:00 +13°C° 0 mm 2 mps 660 mmHg 69%
    13:00 +13°C° 0 mm 2 mps 659 mmHg 71%
    14:00 +12°C° 0 mm 2 mps 659 mmHg 73%
    15:00 +12°C° 0 mm 2 mps 659 mmHg 76%
    16:00 +11°C° 0 mm 1 mps 658 mmHg 80%
    17:00 +10°C° 0 mm 1 mps 658 mmHg 85%
    18:00 +8°C° 0 mm 0 mps 658 mmHg 89%
    19:00 +8°C° 0 mm 0 mps 658 mmHg 90%
    20:00 +7°C° 0 mm 0 mps 658 mmHg 90%
    21:00 +7°C° 0 mm 0 mps 658 mmHg 91%
    22:00 +7°C° 0 mm 0 mps 658 mmHg 91%
    23:00 +6°C° 0 mm 0 mps 658 mmHg 91%

    23 October, Wednesday

    Time Temperature Precipitation Wind Pressure Humidity
    00:00 +6°C° 0 mm 0 mps 657 mmHg 91%
    01:00 +6°C° 0 mm 0 mps 657 mmHg 91%
    02:00 +6°C° 0 mm 0 mps 657 mmHg 91%
    03:00 +5°C° 0 mm 0 mps 657 mmHg 91%
    04:00 +5°C° 0 mm 0 mps 657 mmHg 91%
    05:00 +5°C° 0 mm 0 mps 657 mmHg 90%
    06:00 +5°C° 0 mm 0 mps 657 mmHg 90%
    07:00 +8°C° 0 mm 1 mps 658 mmHg 85%
    08:00 +9°C° 0 mm 1 mps 658 mmHg 80%
    09:00 +11°C° 0 mm 1 mps 659 mmHg 75%
    10:00 +10°C° 0 mm 2 mps 659 mmHg 74%
    11:00 +10°C° 0 mm 2 mps 659 mmHg 74%
    12:00 +12°C° 0 mm 2 mps 659 mmHg 73%
    13:00 +10°C° 0 mm 2 mps 659 mmHg 76%
    14:00 +10°C° 0 mm 2 mps 658 mmHg 79%
    15:00 +9°C° 0 mm 2 mps 658 mmHg 82%
    16:00 +9°C° 0 mm 1 mps 658 mmHg 84%
    17:00 +9°C° 0 mm 1 mps 658 mmHg 86%
    18:00 +7°C° 0 mm 0 mps 658 mmHg 88%
    19:00 +7°C° 0 mm 0 mps 658 mmHg 89%
    20:00 +6°C° 0 mm 0 mps 658 mmHg 89%
    21:00 +6°C° 0 mm 0 mps 658 mmHg 90%
    22:00 +6°C° 0 mm 0 mps 658 mmHg 90%
    23:00 +6°C° 0 mm 0 mps 657 mmHg 89%

    24 October, Thursday

    Time Temperature Precipitation Wind Pressure Humidity
    00:00 +5°C° 0 mm 0 mps 657 mmHg 89%
    01:00 +5°C° 0 mm 0 mps 657 mmHg 88%
    02:00 +5°C° 0 mm 0 mps 657 mmHg 88%
    03:00 +5°C° 0 mm 0 mps 657 mmHg 87%
    04:00 +5°C° 0 mm 0 mps 657 mmHg 86%
    05:00 +5°C° 0 mm 0 mps 657 mmHg 86%
    06:00 +5°C° 0 mm 0 mps 657 mmHg 85%
    07:00 +7°C° 0 mm 1 mps 657 mmHg 79%
    08:00 +9°C° 0 mm 1 mps 658 mmHg 74%
    09:00 +10°C° 0 mm 2 mps 658 mmHg 68%
    10:00 +12°C° 0 mm 2 mps 658 mmHg 67%
    11:00 +12°C° 0 mm 2 mps 658 mmHg 66%
    12:00 +12°C° 0 mm 3 mps 658 mmHg 65%
    13:00 +12°C° 0 mm 3 mps 658 mmHg 67%
    14:00 +12°C° 0 mm 2 mps 657 mmHg 70%
    15:00 +12°C° 0 mm 2 mps 657 mmHg 72%
    16:00 +10°C° 0 mm 2 mps 657 mmHg 78%
    17:00 +9°C° 0 mm 1 mps 656 mmHg 84%
    18:00 +8°C° 0 mm 1 mps 656 mmHg 89%
    19:00 +8°C° 0 mm 1 mps 656 mmHg 88%
    20:00 +7°C° 0 mm 0 mps 656 mmHg 87%
    21:00 +7°C° 0 mm 0 mps 656 mmHg 86%
    22:00 +7°C° 0 mm 0 mps 656 mmHg 84%
    23:00 +6°C° 0 mm 0 mps 656 mmHg 82%

    25 October, Friday

    Time Temperature Precipitation Wind Pressure Humidity
    00:00 +7°C° 0 mm 1 mps 655 mmHg 81%
    01:00 +7°C° 0 mm 1 mps 655 mmHg 78%
    02:00 +7°C° 0 mm 1 mps 655 mmHg 76%
    03:00 +7°C° 0 mm 1 mps 655 mmHg 74%
    04:00 +7°C° 0 mm 1 mps 655 mmHg 71%
    05:00 +7°C° 0 mm 1 mps 655 mmHg 69%
    06:00 +7°C° 0 mm 1 mps 655 mmHg 67%
    07:00 +9°C° 0 mm 1 mps 656 mmHg 63%
    08:00 +11°C° 0 mm 1 mps 656 mmHg 58%
    09:00 +12°C° 0 mm 1 mps 657 mmHg 54%
    10:00 +13°C° 0 mm 2 mps 657 mmHg 54%
    11:00 +14°C° 0 mm 2 mps 657 mmHg 55%
    12:00 +15°C° 0 mm 2 mps 657 mmHg 55%
    13:00 +14°C° 0 mm 2 mps 657 mmHg 59%
    14:00 +14°C° 0 mm 2 mps 657 mmHg 62%
    15:00 +14°C° 0 mm 2 mps 656 mmHg 65%
    16:00 +12°C° 0 mm 2 mps 656 mmHg 74%
    17:00 +10°C° 0 mm 2 mps 656 mmHg 83%
    18:00 +9°C° 0 mm 1 mps 655 mmHg 91%
    19:00 +9°C° 0 mm 1 mps 656 mmHg 89%
    20:00 +9°C° 0 mm 1 mps 656 mmHg 88%
    21:00 +9°C° 0 mm 1 mps 656 mmHg 86%
    22:00 +9°C° 0 mm 1 mps 655 mmHg 84%
    23:00 +9°C° 0 mm 1 mps 655 mmHg 82%
    Show more